Eendracht — PDVN — position and weather

sailwx.info

Track history (hours):
 
Tides and Currents Weather Stations Pressure Air Temp Water Temp Dewpoint Dewpoint Depression Visibility Wind Speed Wind Dir Waves Ship Positions

Eendracht (Netherlands)

Last reported at 2017-Feb-21 22:20 UTC. Time now 2017-Feb-22 17:24 UTC.
Position N 28°57' W 015°48'.

Length 59 m; beam 12 m; draft 5 m.

Type: Sailing vessel. MMSI: 244543000.

Date/timePositionNaut miles runAvg speedWind from/ knotsBaromVisibWave heightAir tempDewpointWater temp
2017-Feb-21 22:20N 28°57' W 015°48'5 6.3
2017-Feb-21 21:34N 28°56' W 015°43'7 7.1
2017-Feb-21 20:32N 28°54' W 015°35'8 8.0
2017-Feb-21 19:34N 28°53' W 015°26'8 7.7
2017-Feb-21 18:34N 28°52' W 015°17'8 8.0
2017-Feb-21 17:33N 28°51' W 015°08'8 8.3
2017-Feb-21 16:32N 28°52' W 014°58'3 2.8
2017-Feb-21 15:33N 28°50' W 015°00'6 6.1
2017-Feb-21 14:33N 28°46' W 015°06'5 4.8
2017-Feb-21 13:33N 28°43' W 015°10'4 3.7
2017-Feb-21 12:33N 28°41' W 015°14'4 3.9
2017-Feb-21 11:33N 28°39' W 015°17'3 2.8
2017-Feb-21 10:33N 28°37' W 015°20'4 4.0
2017-Feb-21 09:33N 28°35' W 015°23'3 3.3
2017-Feb-21 08:33N 28°32' W 015°26'4 4.4
2017-Feb-21 07:33N 28°29' W 015°30'4 4.2
2017-Feb-21 06:34N 28°27' W 015°33'5 4.5
2017-Feb-21 05:34N 28°25' W 015°38'4 3.7
2017-Feb-21 04:34N 28°23' W 015°42'6 6.4
2017-Feb-21 03:33N 28°23' W 015°34'6 6.0
2017-Feb-21 02:33N 28°23' W 015°28'6 6.1
2017-Feb-21 01:33N 28°22' W 015°21'7 6.7
2017-Feb-21 00:33N 28°21' W 015°13'7 6.9
2017-Feb-20 23:33N 28°21' W 015°05'6 5.8
2017-Feb-20 22:33N 28°19' W 014°59'3 2.6
2017-Feb-20 21:33N 28°18' W 015°02'4 4.1
2017-Feb-20 20:33N 28°17' W 015°06'5 4.5
2017-Feb-20 19:33N 28°16' W 015°11'4 4.1
2017-Feb-20 18:33N 28°15' W 015°16'3 3.0
2017-Feb-20 17:34N 28°14' W 015°18'3 3.2
2017-Feb-20 16:33N 28°12' W 015°22'2 1.6
2017-Feb-20 15:34N 28°10' W 015°22'3 3.0
2017-Feb-20 14:34N 28°08' W 015°23'2 1.1
2017-Feb-20 12:28N 28°08' W 015°25'0 0.0
2017-Feb-20 11:28N 28°08' W 015°25'0 0.0
2017-Feb-20 10:25N 28°08' W 015°25'0 0.0
2017-Feb-18 10:33N 28°08' W 015°25'0 0.0
2017-Feb-18 09:33N 28°08' W 015°25'0 0.0
2017-Feb-18 08:33N 28°08' W 015°25'0 0.0
2017-Feb-18 07:33N 28°08' W 015°25'0 0.0
2017-Feb-18 06:33N 28°08' W 015°25'0 0.0
2017-Feb-18 05:33N 28°08' W 015°25'0 0.0
2017-Feb-18 04:33N 28°08' W 015°25'0 0.0
2017-Feb-18 03:33N 28°08' W 015°25'0 0.0
2017-Feb-18 02:33N 28°08' W 015°25'0 0.0
2017-Feb-18 01:33N 28°08' W 015°25'0 0.0
2017-Feb-18 00:33N 28°08' W 015°25'0 0.0
2017-Feb-17 23:33N 28°08' W 015°25'0 0.0
2017-Feb-17 22:33N 28°08' W 015°25'0 0.0
2017-Feb-17 21:33N 28°08' W 015°25'0 0.0
2017-Feb-17 20:33N 28°08' W 015°25'0 0.0
2017-Feb-17 19:33N 28°08' W 015°25'0 0.0
2017-Feb-17 18:33N 28°08' W 015°25'0 0.0
2017-Feb-17 17:33N 28°08' W 015°25'0 0.0
2017-Feb-17 16:33N 28°08' W 015°25'0 0.0
2017-Feb-17 15:33N 28°08' W 015°25'0 0.0
2017-Feb-17 14:33N 28°08' W 015°25'0 0.0
2017-Feb-17 13:33N 28°08' W 015°25'0 0.0
2017-Feb-17 12:33N 28°08' W 015°25'0 0.0
2017-Feb-17 11:33N 28°08' W 015°25'1 1.2
2017-Feb-17 10:33N 28°07' W 015°25'4 3.6
2017-Feb-17 09:33N 28°06' W 015°21'2 2.4
2017-Feb-17 08:33N 28°05' W 015°19'4 4.4
2017-Feb-17 07:33N 28°06' W 015°14'6 5.6
2017-Feb-17 06:33N 28°09' W 015°09'5 5.4
2017-Feb-17 05:33N 28°11' W 015°03'5 5.4
2017-Feb-17 04:33N 28°14' W 014°58'5 4.6
2017-Feb-17 03:33N 28°18' W 014°55'5 4.7
2017-Feb-17 02:33N 28°21' W 014°51'5 5.4
2017-Feb-17 01:33N 28°25' W 014°47'4 4.0
2017-Feb-17 00:33N 28°27' W 014°43'4 3.7
2017-Feb-16 23:33N 28°29' W 014°39'4 3.9
2017-Feb-16 22:33N 28°30' W 014°35'5 4.8
2017-Feb-16 21:33N 28°32' W 014°30'5 5.1
2017-Feb-16 20:33N 28°34' W 014°25'3 3.1
2017-Feb-16 19:33N 28°34' W 014°28'7 6.6
2017-Feb-16 18:33N 28°35' W 014°35'7 7.4
2017-Feb-16 17:33N 28°35' W 014°44'7 6.9
2017-Feb-16 16:33N 28°36' W 014°52'6 6.3
2017-Feb-16 15:33N 28°36' W 014°59'5 5.1
2017-Feb-16 14:33N 28°37' W 015°05'4 3.9
2017-Feb-16 13:33N 28°37' W 015°09'4 3.8
2017-Feb-16 12:33N 28°37' W 015°13'3 2.7
2017-Feb-16 11:33N 28°38' W 015°16'4 3.9
2017-Feb-16 10:33N 28°41' W 015°19'4 3.8
2017-Feb-16 09:33N 28°43' W 015°22'4 3.9
2017-Feb-16 08:33N 28°44' W 015°27'4 3.6
2017-Feb-16 07:33N 28°44' W 015°31'3 3.0
2017-Feb-16 06:33N 28°43' W 015°34'4 3.6
2017-Feb-16 05:33N 28°40' W 015°36'4 3.9
2017-Feb-16 04:33N 28°37' W 015°39'4 4.3
2017-Feb-16 03:33N 28°33' W 015°42'4 4.4
2017-Feb-16 02:33N 28°30' W 015°45'5 4.6
2017-Feb-16 01:33N 28°26' W 015°48'4 4.5
2017-Feb-16 00:33N 28°23' W 015°51'4 4.3
2017-Feb-15 23:33N 28°19' W 015°54'4 4.3
2017-Feb-15 22:32N 28°15' W 015°57'7 3.5
2017-Feb-15 20:33N 28°17' W 016°04'  
2017-Feb-12 02:24N 27°36' W 015°24'6 5.2
2017-Feb-12 01:10N 27°33' W 015°18'2 3.7
2017-Feb-12 00:32N 27°31' W 015°16'2 2.0
2017-Feb-11 23:31N 27°33' W 015°16'4 4.3
2017-Feb-11 22:33N 27°37' W 015°17'  
Track history (hours):
 
Tides and Currents Weather Stations Pressure Air Temp Water Temp Dewpoint Dewpoint Depression Visibility Wind Speed Wind Dir Waves Ship Positions

Eendracht (Netherlands)

Last reported at 2017-Feb-21 22:20 UTC. Time now 2017-Feb-22 17:24 UTC.
Position N 28°57' W 015°48'.

Length 59 m; beam 12 m; draft 5 m.

Type: Sailing vessel. MMSI: 244543000.

Date/timePositionNaut miles runAvg speedWind from/ knotsBaromVisibWave heightAir tempDewpointWater temp
2017-Feb-21 22:20N 28°57' W 015°48'5 6.3
2017-Feb-21 21:34N 28°56' W 015°43'7 7.1
2017-Feb-21 20:32N 28°54' W 015°35'8 8.0
2017-Feb-21 19:34N 28°53' W 015°26'8 7.7
2017-Feb-21 18:34N 28°52' W 015°17'8 8.0
2017-Feb-21 17:33N 28°51' W 015°08'8 8.3
2017-Feb-21 16:32N 28°52' W 014°58'3 2.8
2017-Feb-21 15:33N 28°50' W 015°00'6 6.1
2017-Feb-21 14:33N 28°46' W 015°06'5 4.8
2017-Feb-21 13:33N 28°43' W 015°10'4 3.7
2017-Feb-21 12:33N 28°41' W 015°14'4 3.9
2017-Feb-21 11:33N 28°39' W 015°17'3 2.8
2017-Feb-21 10:33N 28°37' W 015°20'4 4.0
2017-Feb-21 09:33N 28°35' W 015°23'3 3.3
2017-Feb-21 08:33N 28°32' W 015°26'4 4.4
2017-Feb-21 07:33N 28°29' W 015°30'4 4.2
2017-Feb-21 06:34N 28°27' W 015°33'5 4.5
2017-Feb-21 05:34N 28°25' W 015°38'4 3.7
2017-Feb-21 04:34N 28°23' W 015°42'6 6.4
2017-Feb-21 03:33N 28°23' W 015°34'6 6.0
2017-Feb-21 02:33N 28°23' W 015°28'6 6.1
2017-Feb-21 01:33N 28°22' W 015°21'7 6.7
2017-Feb-21 00:33N 28°21' W 015°13'7 6.9
2017-Feb-20 23:33N 28°21' W 015°05'6 5.8
2017-Feb-20 22:33N 28°19' W 014°59'3 2.6
2017-Feb-20 21:33N 28°18' W 015°02'4 4.1
2017-Feb-20 20:33N 28°17' W 015°06'5 4.5
2017-Feb-20 19:33N 28°16' W 015°11'4 4.1
2017-Feb-20 18:33N 28°15' W 015°16'3 3.0
2017-Feb-20 17:34N 28°14' W 015°18'3 3.2
2017-Feb-20 16:33N 28°12' W 015°22'2 1.6
2017-Feb-20 15:34N 28°10' W 015°22'3 3.0
2017-Feb-20 14:34N 28°08' W 015°23'2 1.1
2017-Feb-20 12:28N 28°08' W 015°25'0 0.0
2017-Feb-20 11:28N 28°08' W 015°25'0 0.0
2017-Feb-20 10:25N 28°08' W 015°25'0 0.0
2017-Feb-18 10:33N 28°08' W 015°25'0 0.0
2017-Feb-18 09:33N 28°08' W 015°25'0 0.0
2017-Feb-18 08:33N 28°08' W 015°25'0 0.0
2017-Feb-18 07:33N 28°08' W 015°25'0 0.0
2017-Feb-18 06:33N 28°08' W 015°25'0 0.0
2017-Feb-18 05:33N 28°08' W 015°25'0 0.0
2017-Feb-18 04:33N 28°08' W 015°25'0 0.0
2017-Feb-18 03:33N 28°08' W 015°25'0 0.0
2017-Feb-18 02:33N 28°08' W 015°25'0 0.0
2017-Feb-18 01:33N 28°08' W 015°25'0 0.0
2017-Feb-18 00:33N 28°08' W 015°25'0 0.0
2017-Feb-17 23:33N 28°08' W 015°25'0 0.0
2017-Feb-17 22:33N 28°08' W 015°25'0 0.0
2017-Feb-17 21:33N 28°08' W 015°25'0 0.0
2017-Feb-17 20:33N 28°08' W 015°25'0 0.0
2017-Feb-17 19:33N 28°08' W 015°25'0 0.0
2017-Feb-17 18:33N 28°08' W 015°25'0 0.0
2017-Feb-17 17:33N 28°08' W 015°25'0 0.0
2017-Feb-17 16:33N 28°08' W 015°25'0 0.0
2017-Feb-17 15:33N 28°08' W 015°25'0 0.0
2017-Feb-17 14:33N 28°08' W 015°25'0 0.0
2017-Feb-17 13:33N 28°08' W 015°25'0 0.0
2017-Feb-17 12:33N 28°08' W 015°25'0 0.0
2017-Feb-17 11:33N 28°08' W 015°25'1 1.2
2017-Feb-17 10:33N 28°07' W 015°25'4 3.6
2017-Feb-17 09:33N 28°06' W 015°21'2 2.4
2017-Feb-17 08:33N 28°05' W 015°19'4 4.4
2017-Feb-17 07:33N 28°06' W 015°14'6 5.6
2017-Feb-17 06:33N 28°09' W 015°09'5 5.4
2017-Feb-17 05:33N 28°11' W 015°03'5 5.4
2017-Feb-17 04:33N 28°14' W 014°58'5 4.6
2017-Feb-17 03:33N 28°18' W 014°55'5 4.7
2017-Feb-17 02:33N 28°21' W 014°51'5 5.4
2017-Feb-17 01:33N 28°25' W 014°47'4 4.0
2017-Feb-17 00:33N 28°27' W 014°43'4 3.7
2017-Feb-16 23:33N 28°29' W 014°39'4 3.9
2017-Feb-16 22:33N 28°30' W 014°35'5 4.8
2017-Feb-16 21:33N 28°32' W 014°30'5 5.1
2017-Feb-16 20:33N 28°34' W 014°25'3 3.1
2017-Feb-16 19:33N 28°34' W 014°28'7 6.6
2017-Feb-16 18:33N 28°35' W 014°35'7 7.4
2017-Feb-16 17:33N 28°35' W 014°44'7 6.9
2017-Feb-16 16:33N 28°36' W 014°52'6 6.3
2017-Feb-16 15:33N 28°36' W 014°59'5 5.1
2017-Feb-16 14:33N 28°37' W 015°05'4 3.9
2017-Feb-16 13:33N 28°37' W 015°09'4 3.8
2017-Feb-16 12:33N 28°37' W 015°13'3 2.7
2017-Feb-16 11:33N 28°38' W 015°16'4 3.9
2017-Feb-16 10:33N 28°41' W 015°19'4 3.8
2017-Feb-16 09:33N 28°43' W 015°22'4 3.9
2017-Feb-16 08:33N 28°44' W 015°27'4 3.6
2017-Feb-16 07:33N 28°44' W 015°31'3 3.0
2017-Feb-16 06:33N 28°43' W 015°34'4 3.6
2017-Feb-16 05:33N 28°40' W 015°36'4 3.9
2017-Feb-16 04:33N 28°37' W 015°39'4 4.3
2017-Feb-16 03:33N 28°33' W 015°42'4 4.4
2017-Feb-16 02:33N 28°30' W 015°45'5 4.6
2017-Feb-16 01:33N 28°26' W 015°48'4 4.5
2017-Feb-16 00:33N 28°23' W 015°51'4 4.3
2017-Feb-15 23:33N 28°19' W 015°54'4 4.3
2017-Feb-15 22:32N 28°15' W 015°57'7 3.5
2017-Feb-15 20:33N 28°17' W 016°04'  
2017-Feb-12 02:24N 27°36' W 015°24'6 5.2
2017-Feb-12 01:10N 27°33' W 015°18'2 3.7
2017-Feb-12 00:32N 27°31' W 015°16'2 2.0
2017-Feb-11 23:31N 27°33' W 015°16'4 4.3
2017-Feb-11 22:33N 27°37' W 015°17'  

Dump ship's entire track history